Flag for Vietnam Weather past 2 weeks in Ho Chi Minh, Vietnam

Now
88 °F

Passing clouds.


Feels Like: 94 °F
Forecast: 80 / 93 °F
Wind: 7 mph from West

Location: Ho Chi Minh

Current Time: May 23, 2015 at 7:40:51 PM

Latest Report: May 23, 2015 at 7:00 PM


Visibility: N/A

Pressure: 29.77 "Hg

Humidity: 59%

Dew point: 72 °F

Location of Ho Chi MinhLocation

Historic Weather in Ho Chi Minh — Graph

°F

Ho Chi Minh temperature yesterday

Maximum temperature yesterday: 95 °F (at 11:00 AM)
Minimum temperature yesterday: 81 °F (at 2:30 PM)
Average temperature yesterday: 86 °F

Past Weeks' High & Low Weather Summary

 TemperatureHumidityPressure
High99 °F (May 19, 2:00 PM)94% (May 23, 2:30 AM)29.92 "Hg (May 23, 2:30 AM)
Low75 °F (May 9, 3:00 PM)34% (May 18, 1:30 PM)29.68 "Hg (May 8, 6:00 PM)
Average87 °F68%29.79 "Hg
* Reported May 8 6:00 PM — May 23 6:30 PM, Ho Chi Minh, Weather by CustomWeather, © 2015

Note: Actual official high and low records may vary slightly from our data, if they occured in-between our weather recording intervals... More about our weather records

Advertising

Ho Chi Minh weather history for previous 24 hours

 ConditionsComfort  
Time TempWeatherWind HumidityBarometerVisibility
6:30 PM
Sat, May 23
90 °FPassing clouds.9 mph52%29.74 "HgN/A
6:00 PM90 °FScattered clouds.10 mph52%29.74 "HgN/A
5:30 PM90 °FPassing clouds.10 mph55%29.74 "HgN/A
5:00 PM91 °FScattered clouds.13 mph49%29.74 "HgN/A
4:30 PM93 °FScattered clouds.12 mph47%29.71 "HgN/A
4:00 PM93 °FScattered clouds.14 mph49%29.71 "HgN/A
3:30 PM93 °FScattered clouds.9 mph53%29.71 "HgN/A
3:00 PM93 °FScattered clouds.13 mph53%29.74 "HgN/A
2:30 PM91 °FScattered clouds.17 mph56%29.74 "Hg5 mi
2:00 PM95 °FScattered clouds.12 mph50%29.74 "HgN/A
1:30 PM93 °FScattered clouds.10 mph53%29.74 "HgN/A
1:00 PM91 °FPartly sunny.12 mph56%29.77 "HgN/A
12:30 PM95 °FPartly sunny.8 mph50%29.80 "HgN/A
12:00 PM91 °FPartly sunny.10 mph56%29.80 "HgN/A
11:30 AM91 °FScattered clouds.8 mph52%29.83 "HgN/A
11:00 AM93 °FScattered clouds.9 mph53%29.83 "HgN/A
10:30 AM91 °FScattered clouds.7 mph56%29.83 "HgN/A
10:00 AM91 °FScattered clouds.6 mph59%29.83 "HgN/A
9:30 AM90 °FScattered clouds.7 mph63%29.86 "HgN/A
9:00 AM88 °FScattered clouds.6 mph70%29.83 "HgN/A
8:30 AM86 °FScattered clouds.7 mph75%29.83 "HgN/A
8:00 AM86 °FScattered clouds.7 mph75%29.83 "Hg5 mi
7:30 AM86 °FScattered clouds.2 mph75%29.83 "Hg5 mi
7:00 AM84 °FFog.1 mph79%29.83 "Hg2 mi
6:30 AM82 °FFog.1 mph84%29.83 "Hg2 mi
6:00 AM81 °FFog.2 mph89%29.80 "Hg2 mi
5:30 AM81 °FPassing clouds.1 mph84%29.80 "Hg5 mi
5:00 AM81 °FPassing clouds.1 mph84%29.80 "Hg5 mi
4:30 AM79 °FPassing clouds.No wind94%29.80 "Hg5 mi
4:00 AM79 °FPassing clouds.1 mph94%29.80 "Hg5 mi
3:30 AM79 °FPassing clouds.1 mph94%29.80 "Hg5 mi
3:00 AM79 °FPassing clouds.3 mph94%29.80 "Hg5 mi
2:30 AM79 °FPassing clouds.3 mph94%29.80 "Hg5 mi
2:00 AM81 °FPassing clouds.2 mph89%29.80 "Hg5 mi
1:30 AM81 °FPassing clouds.2 mph89%29.83 "Hg5 mi
1:00 AM81 °FPassing clouds.2 mph89%29.83 "Hg5 mi
12:30 AM81 °FPassing clouds.2 mph89%29.83 "Hg5 mi
12:00 AM81 °FPassing clouds.2 mph89%29.86 "Hg5 mi
11:30 PM
Fri, May 22
81 °FPassing clouds.1 mph89%29.83 "Hg5 mi
11:00 PM81 °FPassing clouds.1 mph89%29.86 "Hg5 mi
10:30 PM81 °FPassing clouds.5 mph89%29.86 "HgN/A
10:00 PM82 °FPassing clouds.7 mph79%29.86 "HgN/A
9:30 PM84 °FPassing clouds.5 mph74%29.86 "HgN/A
9:00 PM82 °FPassing clouds.3 mph79%29.83 "HgN/A
8:30 PM84 °FPassing clouds.2 mph70%29.80 "HgN/A
8:00 PM82 °FPassing clouds.2 mph74%29.77 "HgN/A
7:30 PM84 °FPassing clouds.6 mph70%29.77 "HgN/A
7:00 PM84 °FPassing clouds.7 mph66%29.77 "HgN/A
Weather by CustomWeather, © 2015

See weather overviewHow to use our weather pages